| time (UTC) | temp F | wind direction | speed MPH | gust MPH | rain 1hr in | rain 24hr in | rain mn in | humidity % | barometer mb |
| 20260505073038 | 57 | 350 | 0.0 | 0.0 | 0.00 | 0.00 | 0.00 | 80 | 1018.6 |
| 20260505071540 | 58 | 341 | 0.0 | 0.0 | 0.00 | 0.00 | 0.00 | 79 | 1018.4 |
| 20260505070137 | 58 | 302 | 0.0 | 0.0 | 0.00 | 0.00 | 0.00 | 78 | 1018.4 |
| 20260505064600 | 59 | 41 | 0.0 | 0.0 | 0.00 | 0.00 | 0.00 | 76 | 1018.3 |
| 20260505063053 | 60 | 125 | 0.0 | 2.0 | 0.00 | 0.00 | 0.00 | 75 | 1018.4 |
| 20260505061548 | 60 | 330 | 0.0 | 4.0 | 0.00 | 0.00 | 0.00 | 74 | 1018.3 |
| 20260505060147 | 60 | 75 | 0.0 | 1.0 | 0.00 | 0.00 | 0.00 | 75 | 1018.4 |
| 20260505054555 | 61 | 318 | 0.0 | 2.0 | 0.00 | 0.00 | 0.00 | 74 | 1018.4 |
| 20260505053043 | 61 | 102 | 0.0 | 2.0 | 0.00 | 0.00 | 0.00 | 73 | 1018.4 |
| 20260505051541 | 61 | 242 | 0.0 | 2.0 | 0.00 | 0.00 | 0.00 | 72 | 1018.5 |
| 20260505050140 | 61 | 308 | 0.0 | 3.0 | 0.00 | 0.00 | 0.00 | 72 | 1018.6 |
| 20260505041611 | 62 | 104 | 0.0 | 5.0 | 0.00 | 0.00 | 0.00 | 71 | 1018.7 |
| 20260505040153 | 62 | 304 | 0.0 | 3.0 | 0.00 | 0.00 | 0.00 | 70 | 1018.6 |
| 20260505034547 | 61 | 95 | 0.0 | 1.0 | 0.00 | 0.00 | 0.00 | 70 | 1018.7 |
| 20260505033044 | 61 | 93 | 0.0 | 0.0 | 0.00 | 0.00 | 0.00 | 68 | 1018.7 |
| 20260505031544 | 61 | 92 | 0.0 | 0.0 | 0.00 | 0.00 | 0.00 | 66 | 1018.7 |
| 20260505030145 | 62 | 93 | 0.0 | 1.0 | 0.00 | 0.00 | 0.00 | 64 | 1018.7 |
| 20260505024544 | 61 | 51 | 0.0 | 1.0 | 0.00 | 0.00 | 0.00 | 65 | 1018.7 |
| 20260505023044 | 60 | 270 | 0.0 | 0.0 | 0.00 | 0.00 | 0.00 | 64 | 1018.6 |
| 20260505021542 | 61 | 270 | 0.0 | 0.0 | 0.00 | 0.00 | 0.00 | 61 | 1018.4 |
| 20260505020135 | 62 | 270 | 0.0 | 1.0 | 0.00 | 0.00 | 0.00 | 61 | 1018.3 |
| 20260505014551 | 61 | 270 | 0.0 | 0.0 | 0.00 | 0.00 | 0.00 | 61 | 1018.2 |
| 20260505013052 | 62 | 270 | 0.0 | 0.0 | 0.00 | 0.00 | 0.00 | 61 | 1017.9 |
| 20260505011550 | 62 | 270 | 0.0 | 0.0 | 0.00 | 0.00 | 0.00 | 60 | 1017.7 |
| 20260505010149 | 62 | 269 | 0.0 | 0.0 | 0.00 | 0.00 | 0.00 | 61 | 1017.5 |
| 20260505004543 | 63 | 270 | 0.0 | 0.0 | 0.00 | 0.00 | 0.00 | 62 | 1017.3 |
| 20260505003041 | 65 | 270 | 0.0 | 0.0 | 0.00 | 0.00 | 0.00 | 58 | 1017.1 |
| 20260505001549 | 67 | 270 | 0.0 | 0.0 | 0.00 | 0.00 | 0.00 | 54 | 1016.9 |
| 20260505000141 | 69 | 270 | 0.0 | 0.0 | 0.00 | 0.00 | 0.00 | 49 | 1016.9 |
| 20260504234535 | 71 | 270 | 0.0 | 0.0 | 0.00 | 0.00 | 0.00 | 46 | 1016.8 |
| 20260504233036 | 73 | 270 | 0.0 | 0.0 | 0.00 | 0.00 | 0.00 | 42 | 1016.7 |
| 20260504231553 | 75 | 269 | 0.0 | 0.0 | 0.00 | 0.00 | 0.00 | 39 | 1016.6 |
| 20260504230135 | 76 | 270 | 0.0 | 2.0 | 0.00 | 0.00 | 0.00 | 34 | 1016.6 |
| 20260504224548 | 77 | 250 | 0.0 | 1.0 | 0.00 | 0.00 | 0.00 | 32 | 1016.6 |
| 20260504223047 | 78 | 114 | 0.0 | 5.0 | 0.00 | 0.00 | 0.00 | 33 | 1016.7 |
| 20260504221556 | 79 | 258 | 1.0 | 5.0 | 0.00 | 0.00 | 0.00 | 32 | 1016.6 |
| 20260504220146 | 81 | 272 | 0.0 | 6.0 | 0.00 | 0.00 | 0.00 | 31 | 1016.7 |
| 20260504214543 | 82 | 293 | 0.0 | 5.0 | 0.00 | 0.00 | 0.00 | 30 | 1016.7 |
| 20260504213041 | 83 | 22 | 0.0 | 1.0 | 0.00 | 0.00 | 0.00 | 29 | 1016.7 |
| 20260504211548 | 82 | 298 | 0.0 | 8.0 | 0.00 | 0.00 | 0.00 | 32 | 1016.8 |
| 20260504210138 | 82 | 123 | 0.0 | 2.0 | 0.00 | 0.00 | 0.00 | 32 | 1016.8 |
| 20260504204603 | 83 | 85 | 0.0 | 4.0 | 0.00 | 0.00 | 0.00 | 34 | 1016.9 |
| 20260504203055 | 83 | 251 | 0.0 | 1.0 | 0.00 | 0.00 | 0.00 | 31 | 1017.0 |
| 20260504201552 | 82 | 108 | 0.0 | 3.0 | 0.00 | 0.00 | 0.00 | 28 | 1017.1 |
| 20260504200150 | 83 | 65 | 0.0 | 5.0 | 0.00 | 0.00 | 0.00 | 34 | 1017.2 |
| 20260504194603 | 81 | 92 | 0.0 | 6.0 | 0.00 | 0.00 | 0.00 | 31 | 1017.4 |
| 20260504193046 | 82 | 335 | 2.0 | 6.0 | 0.00 | 0.00 | 0.00 | 29 | 1017.6 |
| 20260504191549 | 82 | 127 | 0.0 | 3.0 | 0.00 | 0.00 | 0.00 | 30 | 1017.7 |
| 20260504190141 | 82 | 168 | 0.0 | 5.0 | 0.00 | 0.00 | 0.00 | 30 | 1017.9 |
| 20260504184541 | 82 | 58 | 0.0 | 3.0 | 0.00 | 0.00 | 0.00 | 31 | 1018.1 |
| 20260504183035 | 81 | 287 | 0.0 | 3.0 | 0.00 | 0.00 | 0.00 | 30 | 1018.2 |
| 20260504181542 | 80 | 283 | 0.0 | 5.0 | 0.00 | 0.00 | 0.00 | 33 | 1018.6 |
| 20260504180217 | 81 | 40 | 1.0 | 6.0 | 0.00 | 0.00 | 0.00 | 31 | 1018.5 |
| 20260504174554 | 80 | 176 | 0.0 | 4.0 | 0.00 | 0.00 | 0.00 | 34 | 1018.7 |
| 20260504173100 | 80 | 323 | 1.0 | 6.0 | 0.00 | 0.00 | 0.00 | 32 | 1018.8 |
| 20260504171548 | 78 | 170 | 1.0 | 5.0 | 0.00 | 0.00 | 0.00 | 35 | 1019.0 |
| 20260504170145 | 78 | 69 | 0.0 | 4.0 | 0.00 | 0.00 | 0.00 | 36 | 1019.3 |
| 20260504150149 | 67 | 78 | 0.0 | 4.0 | 0.00 | 0.00 | 0.00 | 61 | 1020.6 |
| 20260504140141 | 61 | 271 | 0.0 | 3.0 | 0.00 | 0.00 | 0.00 | 69 | 1020.8 |
| 20260504130135 | 56 | 232 | 0.0 | 4.0 | 0.00 | 0.00 | 0.00 | 79 | 1020.9 |
| 20260504120146 | 49 | 247 | 0.0 | 1.0 | 0.00 | 0.00 | 0.00 | 94 | 1021.2 |
| 20260504110137 | 41 | 60 | 0.0 | 0.0 | 0.00 | 0.00 | 0.00 | 95 | 1021.2 |
| 20260504100148 | 40 | 60 | 0.0 | 0.0 | 0.00 | 0.00 | 0.00 | 94 | 1020.9 |
| 20260504081537 | 39 | 60 | 0.0 | 0.0 | 0.00 | 0.00 | 0.00 | 93 | 1020.9 |
| 20260504080134 | 40 | 60 | 0.0 | 0.0 | 0.00 | 0.00 | 0.00 | 93 | 1020.9 |